FW3914 Weather Reports


Display with metric or nautical units.
time (UTC)temp
F
wind
direction
speed
MPH
gust
MPH
rain 1hr
in
rain 24hr
in
rain mn
in
humidity
%
barometer
mb
20260507073636 56 291 1.0 7.0 0.00 0.00 0.00 87 1017.4
20260507073132 56 30 4.0 5.0 0.00 0.00 0.00 87 1017.4
20260507072630 56 358 1.0 4.0 0.00 0.00 0.00 87 1017.3
20260507072127 56 64 2.0 7.0 0.00 0.00 0.00 87 1017.4
20260507071625 56 28 0.0 3.0 0.00 0.00 0.00 87 1017.4
20260507071121 56 299 1.0 5.0 0.00 0.00 0.00 86 1017.4
20260507070618 56 29 3.0 6.0 0.00 0.00 0.00 86 1017.5
20260507070115 56 20 2.0 9.0 0.00 0.00 0.00 86 1017.5
20260507065611 56 292 0.0 4.0 0.00 0.00 0.00 86 1017.3
20260507065108 56 57 2.0 8.0 0.00 0.00 0.00 86 1017.3
20260507064606 56 348 0.0 6.0 0.00 0.00 0.00 86 1017.3
20260507064105 56 217 0.0 2.0 0.00 0.00 0.00 86 1017.1
20260507063601 56 9 2.0 7.0 0.00 0.00 0.00 86 1017.3
20260507063059 56 33 4.0 5.0 0.00 0.00 0.00 86 1017.0
20260507062555 56 350 3.0 6.0 0.00 0.00 0.00 86 1017.3
20260507062053 56 285 0.0 4.0 0.00 0.00 0.00 86 1017.1
20260507061550 57 208 2.0 4.0 0.00 0.00 0.00 85 1017.0
20260507061048 57 2 3.0 7.0 0.00 0.00 0.00 85 1017.1
20260507060546 57 77 3.0 6.0 0.00 0.00 0.00 85 1017.0
20260507060042 57 0 3.0 6.0 0.00 0.00 0.00 85 1016.9
20260507055542 57 51 2.0 6.0 0.00 0.00 0.00 84 1017.0
20260507055039 57 30 4.0 8.0 0.00 0.00 0.00 84 1017.1
20260507054535 57 95 3.0 7.0 0.00 0.00 0.00 84 1017.0
20260507054032 57 4 3.0 10.0 0.00 0.00 0.00 84 1017.0
20260507053530 57 47 2.0 6.0 0.00 0.00 0.00 84 1017.1
20260507053029 57 246 1.0 6.0 0.00 0.00 0.00 83 1017.0
20260507052526 57 0 1.0 10.0 0.00 0.00 0.00 83 1017.1
20260507052022 58 61 3.0 9.0 0.00 0.00 0.00 83 1017.1
20260507051520 58 359 2.0 5.0 0.00 0.00 0.00 84 1017.1
20260507051017 58 53 3.0 9.0 0.00 0.00 0.00 85 1017.1
20260507050513 58 71 3.0 6.0 0.00 0.00 0.00 85 1017.2
20260507050010 58 14 3.0 5.0 0.00 0.01 0.01 85 1017.1
20260507045507 58 58 3.0 6.0 0.00 0.01 0.01 85 1017.1
20260507045004 58 36 2.0 6.0 0.00 0.01 0.01 84 1017.3
20260507044501 58 43 5.0 9.0 0.00 0.01 0.01 83 1017.0
20260507043957 58 324 2.0 6.0 0.00 0.01 0.01 83 1017.2
20260507043453 58 58 1.0 6.0 0.00 0.01 0.01 83 1017.2
20260507042950 59 38 3.0 7.0 0.00 0.01 0.01 83 1017.4
20260507042447 59 23 2.0 4.0 0.00 0.01 0.01 83 1017.4
20260507041942 59 4 4.0 8.0 0.00 0.01 0.01 83 1017.4
20260507041439 59 14 5.0 8.0 0.00 0.01 0.01 83 1017.6
20260507040936 59 0 2.0 7.0 0.00 0.01 0.01 82 1017.4
20260507040432 59 49 2.0 8.0 0.00 0.01 0.01 83 1017.5
20260507035928 59 248 2.0 5.0 0.00 0.01 0.01 83 1017.8
20260507035425 59 338 3.0 5.0 0.00 0.01 0.01 83 1017.8
20260507034921 59 358 2.0 6.0 0.00 0.01 0.01 83 1017.6
20260507034418 59 54 3.0 6.0 0.00 0.01 0.01 83 1017.6
20260507033916 59 302 1.0 7.0 0.00 0.01 0.01 83 1017.8
20260507033414 59 238 2.0 5.0 0.00 0.01 0.01 83 1017.5
20260507032911 59 33 2.0 6.0 0.00 0.01 0.01 83 1017.2
20260507032408 59 22 3.0 7.0 0.00 0.01 0.01 83 1017.6
20260507031904 59 359 3.0 7.0 0.00 0.01 0.01 83 1017.2
20260507031401 59 300 2.0 7.0 0.00 0.01 0.01 83 1017.5
20260507030857 59 24 3.0 8.0 0.00 0.01 0.01 83 1017.3
20260507030355 59 14 2.0 4.0 0.00 0.01 0.01 84 1017.0
20260507025851 59 3 2.0 6.0 0.00 0.01 0.01 83 1016.9
20260507025349 59 41 1.0 8.0 0.00 0.01 0.01 83 1016.9
20260507024846 59 12 3.0 5.0 0.00 0.01 0.01 83 1016.8
20260507024343 59 310 2.0 6.0 0.00 0.01 0.01 84 1016.8
20260507023839 59 10 1.0 6.0 0.00 0.01 0.01 84 1016.6
20260507023336 59 9 3.0 6.0 0.00 0.01 0.01 84 1016.7
20260507022834 59 355 5.0 9.0 0.00 0.01 0.01 83 1016.6
20260507022330 59 300 1.0 5.0 0.00 0.01 0.01 84 1016.5
20260507021826 59 350 0.0 5.0 0.00 0.01 0.01 83 1016.3
20260507021322 59 15 2.0 4.0 0.00 0.01 0.01 84 1016.0
20260507020820 59 262 3.0 7.0 0.00 0.01 0.01 84 1016.0
20260507020316 59 21 3.0 6.0 0.00 0.01 0.01 84 1016.1
20260507015813 59 342 3.0 8.0 0.00 0.01 0.01 84 1016.1
20260507015311 59 2 4.0 10.0 0.00 0.01 0.01 84 1016.0
20260507014808 59 7 2.0 8.0 0.00 0.01 0.01 84 1015.8
20260507014304 59 7 3.0 7.0 0.00 0.01 0.01 85 1015.7
20260507013800 59 350 2.0 7.0 0.00 0.01 0.01 84 1015.5
20260507013258 59 26 2.0 6.0 0.00 0.01 0.01 85 1015.2
20260507012755 59 344 0.0 5.0 0.00 0.01 0.01 84 1015.2
20260507012250 59 358 3.0 7.0 0.00 0.01 0.01 84 1015.2
20260507011749 59 30 3.0 7.0 0.00 0.01 0.01 84 1014.9
20260507011245 59 359 3.0 10.0 0.00 0.01 0.01 84 1015.0
20260507010744 59 4 1.0 7.0 0.00 0.01 0.01 84 1014.8
20260507010241 60 8 1.0 4.0 0.00 0.01 0.01 85 1014.9
20260507005738 59 340 3.0 7.0 0.00 0.01 0.01 84 1014.8
20260507005234 60 299 2.0 7.0 0.00 0.01 0.01 84 1014.9
20260507004731 60 324 2.0 7.0 0.00 0.01 0.01 84 1014.6
20260507004229 60 27 5.0 7.0 0.00 0.01 0.01 84 1014.8
20260507003725 60 327 2.0 5.0 0.00 0.01 0.01 84 1014.6
20260507003220 60 56 4.0 7.0 0.00 0.01 0.01 84 1014.7
20260507002717 60 323 5.0 6.0 0.00 0.01 0.01 84 1014.6
20260507002213 60 43 2.0 8.0 0.00 0.01 0.01 84 1014.2
20260507001709 60 350 3.0 5.0 0.00 0.01 0.01 84 1014.4
20260507001207 60 334 2.0 10.0 0.00 0.01 0.01 84 1014.3
20260507000703 60 354 4.0 6.0 0.00 0.01 0.01 84 1014.1
20260507000159 60 19 2.0 5.0 0.00 0.01 0.01 84 1014.3
20260506235656 60 331 3.0 7.0 0.00 0.01 0.01 84 1014.2
20260506235151 60 42 5.0 7.0 0.00 0.01 0.01 84 1014.4
20260506234648 60 265 3.0 7.0 0.00 0.01 0.01 84 1014.2
20260506234145 60 4 3.0 8.0 0.00 0.01 0.01 84 1014.2
20260506233643 60 54 4.0 10.0 0.00 0.01 0.01 83 1014.2
20260506233139 60 9 5.0 9.0 0.00 0.01 0.01 83 1014.2
20260506232636 60 9 3.0 7.0 0.00 0.01 0.01 83 1014.1
20260506232131 60 342 3.0 7.0 0.00 0.01 0.01 83 1014.0
20260506231628 61 52 2.0 5.0 0.00 0.01 0.01 82 1013.9
20260506231127 60 43 5.0 7.0 0.00 0.01 0.01 83 1013.7
20260506230624 61 308 3.0 6.0 0.00 0.01 0.01 83 1013.6
20260506230120 60 40 3.0 6.0 0.00 0.01 0.01 84 1013.6
20260506225617 60 284 4.0 9.0 0.00 0.01 0.01 85 1013.7
20260506225113 60 346 4.0 7.0 0.00 0.01 0.01 84 1014.0
20260506224610 60 0 5.0 7.0 0.00 0.01 0.01 82 1014.2
20260506224107 60 267 2.0 8.0 0.00 0.01 0.01 80 1013.9
20260506223603 60 302 1.0 7.0 0.00 0.01 0.01 80 1013.9
20260506223059 60 339 2.0 7.0 0.00 0.01 0.01 81 1014.0
20260506222556 60 22 3.0 5.0 0.00 0.01 0.01 80 1014.0
20260506222052 60 315 4.0 8.0 0.00 0.01 0.01 80 1014.1
20260506221550 60 99 4.0 7.0 0.00 0.01 0.01 80 1013.8
20260506221048 60 24 3.0 8.0 0.00 0.01 0.01 80 1013.7
20260506220544 60 75 3.0 6.0 0.00 0.01 0.01 80 1013.5
20260506220039 60 295 4.0 5.0 0.00 0.01 0.01 80 1013.5
20260506215537 60 9 3.0 6.0 0.00 0.01 0.01 80 1013.8
20260506215032 60 23 2.0 6.0 0.00 0.01 0.01 80 1013.5
20260506214529 60 316 3.0 11.0 0.00 0.01 0.01 80 1013.6
20260506214027 60 19 2.0 7.0 0.00 0.01 0.01 79 1013.4
20260506213525 60 8 3.0 6.0 0.00 0.01 0.01 80 1013.7
20260506213021 60 32 2.0 7.0 0.00 0.01 0.01 79 1013.7
20260506212518 60 18 0.0 6.0 0.00 0.01 0.01 79 1013.6
20260506212013 61 355 3.0 8.0 0.00 0.01 0.01 78 1013.9
20260506211509 61 30 3.0 5.0 0.00 0.01 0.01 78 1013.5
20260506211007 62 250 2.0 6.0 0.00 0.01 0.01 77 1013.6
20260506210503 62 242 2.0 5.0 0.00 0.01 0.01 77 1013.7
20260506210000 61 345 4.0 6.0 0.00 0.01 0.01 77 1013.6
20260506205456 62 27 4.0 7.0 0.00 0.01 0.01 76 1013.8
20260506204952 62 306 2.0 7.0 0.00 0.01 0.01 77 1013.9
20260506204450 62 208 0.0 6.0 0.00 0.01 0.01 76 1013.9
20260506203947 62 22 1.0 6.0 0.00 0.01 0.01 77 1013.8
20260506203444 62 356 1.0 9.0 0.00 0.01 0.01 78 1013.9
20260506202941 62 2 2.0 7.0 0.00 0.01 0.01 77 1013.9
20260506202438 60 0 3.0 8.0 0.00 0.01 0.01 78 1014.4
20260506201934 61 31 3.0 7.0 0.00 0.01 0.01 79 1014.4
20260506201432 61 348 3.0 5.0 0.00 0.01 0.01 78 1014.1
20260506200928 61 303 1.0 4.0 0.00 0.01 0.01 80 1014.4
20260506200425 60 359 0.0 4.0 0.00 0.01 0.01 81 1014.2
20260506195921 59 42 3.0 5.0 0.00 0.01 0.01 81 1014.0
20260506195419 59 63 0.0 9.0 0.00 0.01 0.01 82 1014.1
20260506194915 59 317 3.0 5.0 0.00 0.01 0.01 82 1014.4
20260506194412 58 33 2.0 6.0 0.00 0.01 0.01 83 1014.6
20260506193909 58 311 2.0 5.0 0.00 0.01 0.01 82 1014.7
20260506193406 59 349 3.0 4.0 0.00 0.01 0.01 82 1014.7
20260506192902 59 236 1.0 3.0 0.00 0.01 0.01 82 1014.8
20260506192359 58 273 0.0 4.0 0.00 0.01 0.01 83 1014.7
20260506191857 58 349 0.0 5.0 0.00 0.01 0.01 83 1014.6
20260506191353 58 85 2.0 3.0 0.00 0.01 0.01 83 1014.8
20260506190850 58 293 0.0 3.0 0.00 0.01 0.01 84 1014.6
20260506190346 58 109 1.0 4.0 0.00 0.01 0.01 84 1014.7
20260506185843 58 300 1.0 4.0 0.00 0.01 0.01 84 1014.9
20260506185340 58 324 0.0 5.0 0.00 0.01 0.01 84 1014.6
20260506184837 58 41 2.0 6.0 0.00 0.01 0.01 83 1014.7
20260506184334 58 310 1.0 7.0 0.00 0.01 0.01 83 1014.3
20260506183832 59 355 2.0 6.0 0.00 0.01 0.01 82 1014.0
20260506183326 59 339 2.0 8.0 0.00 0.01 0.01 82 1013.5
20260506182824 58 70 2.0 8.0 0.00 0.01 0.01 83 1013.2
20260506182321 58 1 3.0 8.0 0.00 0.01 0.01 83 1013.3
20260506181819 58 59 2.0 6.0 0.00 0.01 0.01 82 1013.2
20260506181317 58 10 2.0 7.0 0.00 0.01 0.01 83 1012.7
20260506180814 57 31 3.0 11.0 0.00 0.01 0.01 84 1013.1
20260506180309 58 4 4.0 18.0 0.00 0.01 0.01 84 1013.2
20260506175806 57 29 4.0 9.0 0.00 0.01 0.01 84 1013.5
20260506175306 57 0 2.0 7.0 0.00 0.01 0.01 85 1013.8
20260506174800 56 7 3.0 11.0 0.00 0.01 0.01 85 1013.5
20260506174257 56 300 2.0 7.0 0.00 0.01 0.01 87 1013.9
20260506173755 56 356 3.0 9.0 0.00 0.01 0.01 87 1014.2
20260506173252 55 276 2.0 9.0 0.00 0.01 0.01 87 1014.1
20260506172748 55 300 4.0 12.0 0.00 0.01 0.01 87 1014.1
20260506172245 56 8 4.0 8.0 0.00 0.01 0.01 87 1014.1
20260506171743 55 40 3.0 7.0 0.00 0.01 0.01 88 1014.3
20260506171240 55 355 1.0 7.0 0.00 0.01 0.01 88 1014.5
20260506170737 55 350 4.0 6.0 0.00 0.01 0.01 88 1014.2
20260506170233 55 318 4.0 9.0 0.00 0.01 0.01 88 1013.9
20260506165732 55 83 1.0 11.0 0.00 0.01 0.01 88 1014.4
20260506165229 55 297 3.0 6.0 0.00 0.01 0.01 88 1014.4
20260506164726 55 129 3.0 7.0 0.00 0.01 0.01 88 1014.6
20260506164223 56 15 3.0 6.0 0.00 0.01 0.01 88 1014.6
20260506163719 55 327 2.0 7.0 0.00 0.01 0.01 87 1014.7
20260506163214 56 325 2.0 5.0 0.00 0.01 0.01 89 1015.0
20260506162711 56 46 3.0 8.0 0.00 0.01 0.01 88 1015.0
20260506162208 57 16 0.0 6.0 0.00 0.01 0.01 90 1015.0
20260506161706 56 194 1.0 7.0 0.00 0.01 0.01 91 1014.9
20260506161203 55 291 3.0 5.0 0.00 0.01 0.01 92 1014.4
20260506160700 54 67 1.0 7.0 0.00 0.01 0.01 93 1014.5
20260506160157 54 74 2.0 6.0 0.00 0.01 0.01 93 1013.8
20260506155655 54 342 2.0 9.0 0.07 0.01 0.01 93 1013.6
20260506155152 55 247 3.0 6.0 0.00 0.00 0.00 84 1016.9
20260506153254 55 266 2.0 5.0 0.00 0.00 0.00 83 1016.5
20260506152750 55 264 2.0 4.0 0.00 0.00 0.00 84 1015.8
20260506152248 55 271 2.0 5.0 0.00 0.00 0.00 84 1015.6
20260506151747 55 30 2.0 7.0 0.00 0.00 0.00 84 1015.1
20260506151243 55 262 0.0 3.0 0.00 0.00 0.00 84 1015.3
20260506150740 55 26 2.0 5.0 0.00 0.00 0.00 83 1015.2
20260506150237 55 54 4.0 7.0 0.00 0.00 0.00 83 1013.7
20260506145734 55 359 4.0 7.0 0.00 0.00 0.00 83 1013.9
20260506145230 55 336 3.0 6.0 0.00 0.00 0.00 83 1014.5
20260506144728 55 280 1.0 7.0 0.00 0.00 0.00 83 1014.8
20260506144225 55 336 2.0 6.0 0.00 0.00 0.00 83 1014.7
20260506143722 55 354 2.0 5.0 0.00 0.00 0.00 83 1014.7
20260506143220 55 39 3.0 4.0 0.00 0.00 0.00 83 1014.7
20260506142718 55 288 2.0 10.0 0.00 0.00 0.00 83 1014.5
20260506142216 54 343 3.0 6.0 0.00 0.00 0.00 84 1014.0
20260506141713 54 25 3.0 8.0 0.00 0.00 0.00 84 1014.1
20260506141211 54 249 4.0 7.0 0.00 0.00 0.00 84 1014.2
20260506140709 54 329 2.0 6.0 0.00 0.00 0.00 84 1013.9
20260506140206 54 19 3.0 7.0 0.00 0.00 0.00 84 1013.9
20260506135702 54 339 4.0 10.0 0.00 0.00 0.00 84 1013.8
20260506135159 54 43 4.0 7.0 0.00 0.00 0.00 84 1013.6
20260506134655 54 75 4.0 9.0 0.00 0.00 0.00 84 1013.5
20260506134152 54 52 2.0 8.0 0.00 0.00 0.00 84 1013.6
20260506133649 54 317 4.0 8.0 0.00 0.00 0.00 84 1014.0
20260506133145 54 26 4.0 7.0 0.00 0.00 0.00 85 1013.6
20260506132643 54 310 4.0 9.0 0.00 0.00 0.00 85 1013.3
20260506132139 54 356 1.0 9.0 0.00 0.00 0.00 85 1013.1
20260506131637 54 215 2.0 5.0 0.00 0.00 0.00 86 1013.2
20260506131133 54 299 1.0 8.0 0.00 0.00 0.00 86 1013.3
20260506130630 54 51 4.0 8.0 0.00 0.00 0.00 86 1013.3
20260506130128 54 24 1.0 8.0 0.00 0.00 0.00 86 1013.1
20260506125626 54 336 5.0 9.0 0.00 0.00 0.00 86 1013.2
20260506125123 54 39 3.0 11.0 0.00 0.00 0.00 87 1013.0
20260506124621 54 0 5.0 9.0 0.00 0.00 0.00 87 1013.1
20260506124119 54 23 5.0 8.0 0.00 0.00 0.00 86 1012.7
20260506123616 54 281 2.0 6.0 0.00 0.00 0.00 86 1013.0
20260506123115 54 328 3.0 8.0 0.00 0.00 0.00 85 1012.9
20260506122611 54 46 1.0 7.0 0.00 0.00 0.00 85 1012.7
20260506122109 54 311 6.0 7.0 0.00 0.00 0.00 85 1012.7
20260506121606 54 35 2.0 7.0 0.00 0.00 0.00 85 1012.5
20260506121102 54 352 4.0 6.0 0.00 0.00 0.00 84 1012.6
20260506120601 54 306 4.0 7.0 0.00 0.00 0.00 83 1012.7
20260506120058 54 336 1.0 8.0 0.00 0.00 0.00 83 1012.6
20260506115556 54 310 3.0 6.0 0.00 0.00 0.00 83 1012.3
20260506115054 54 350 3.0 8.0 0.00 0.00 0.00 83 1012.4
20260506114551 55 254 0.0 8.0 0.00 0.00 0.00 83 1012.2
20260506114049 55 27 2.0 8.0 0.00 0.00 0.00 82 1012.2
20260506113546 55 351 5.0 8.0 0.00 0.00 0.00 81 1012.1
20260506113044 55 74 3.0 5.0 0.00 0.00 0.00 81 1012.1
20260506112540 55 55 4.0 8.0 0.00 0.00 0.00 80 1012.1
20260506112037 55 26 5.0 6.0 0.00 0.00 0.00 80 1011.8
20260506111535 55 298 4.0 8.0 0.00 0.00 0.00 80 1011.6
20260506111032 55 37 4.0 8.0 0.00 0.00 0.00 79 1011.6
20260506110530 55 296 1.0 9.0 0.00 0.00 0.00 79 1011.6
20260506110027 56 0 2.0 8.0 0.00 0.00 0.00 78 1011.5
20260506105523 56 338 2.0 7.0 0.00 0.00 0.00 78 1011.5
20260506105020 56 2 3.0 6.0 0.00 0.00 0.00 78 1011.5
20260506104518 56 117 2.0 7.0 0.00 0.00 0.00 78 1011.4
20260506104016 56 114 2.0 10.0 0.00 0.00 0.00 78 1011.2
20260506103513 56 10 2.0 7.0 0.00 0.00 0.00 77 1011.3
20260506103010 56 40 4.0 8.0 0.00 0.00 0.00 77 1010.9
20260506102508 57 45 0.0 6.0 0.00 0.00 0.00 77 1011.1
20260506102005 57 69 0.0 7.0 0.00 0.00 0.00 77 1010.9
20260506101501 57 54 1.0 6.0 0.00 0.00 0.00 77 1010.5
20260506100959 57 36 2.0 8.0 0.00 0.00 0.00 77 1010.5
20260506100457 57 22 3.0 6.0 0.00 0.00 0.00 77 1010.6
20260506095955 57 42 2.0 4.0 0.00 0.00 0.00 76 1010.5
20260506095453 57 330 1.0 7.0 0.00 0.00 0.00 76 1010.6
20260506094949 57 26 4.0 6.0 0.00 0.00 0.00 76 1010.4
20260506094447 57 39 2.0 4.0 0.00 0.00 0.00 76 1010.4
20260506093945 57 29 2.0 6.0 0.00 0.00 0.00 76 1010.5
20260506093443 57 16 3.0 5.0 0.00 0.00 0.00 77 1010.5
20260506092940 58 44 2.0 5.0 0.00 0.00 0.00 76 1010.5
20260506092438 58 259 2.0 7.0 0.00 0.00 0.00 77 1010.5
20260506091934 58 279 3.0 5.0 0.00 0.00 0.00 77 1010.2
20260506091433 58 354 1.0 6.0 0.00 0.00 0.00 77 1010.4
20260506090929 57 357 1.0 6.0 0.00 0.00 0.00 77 1010.4
20260506090427 58 268 1.0 9.0 0.00 0.00 0.00 77 1010.1
20260506085923 58 346 3.0 5.0 0.00 0.00 0.00 77 1010.2
20260506085420 58 315 1.0 5.0 0.00 0.00 0.00 77 1010.0
20260506084917 58 264 2.0 7.0 0.00 0.00 0.00 77 1009.9
20260506084414 58 350 3.0 6.0 0.00 0.00 0.00 77 1009.9
20260506083910 58 0 2.0 5.0 0.00 0.00 0.00 77 1010.1
20260506083407 58 1 4.0 8.0 0.00 0.00 0.00 76 1010.0
20260506082905 58 4 3.0 4.0 0.00 0.00 0.00 76 1010.0
20260506082401 58 303 2.0 6.0 0.00 0.00 0.00 77 1010.0
20260506081857 58 213 2.0 5.0 0.00 0.00 0.00 76 1009.6
20260506081355 58 290 2.0 7.0 0.00 0.00 0.00 77 1009.7
20260506080853 58 323 3.0 5.0 0.00 0.00 0.00 77 1009.7
20260506080349 58 354 3.0 5.0 0.00 0.00 0.00 77 1009.4